CCM26B LFMN-LFKB

Flight info

Callsign CCM26B
Flight time 0h 32m
Altitude 13000
Route SODRI A3 NORKA
Aircraft A320/M-SDE3FGHIRWY/LB1

Departure

Time 2026-05-01 09:01
Airport Nice-Côte d'Azur Airport (LFMN)

Arrival

Time 2026-05-01 09:33
Airport Bastia-Poretta International airport (LFKB)
Time Latitude Longitude Altitude Speed Heading
2026-05-01 08:37 43.66438 7.21409 25 ft 0 kts 351°
2026-05-01 08:54 43.66429 7.21410 23 ft 4 kts 352°
2026-05-01 08:54 43.66402 7.21414 23 ft 4 kts 358°
2026-05-01 08:54 43.66375 7.21413 22 ft 4 kts 11°
2026-05-01 08:54 43.66352 7.21401 24 ft 4 kts 56°
2026-05-01 08:55 43.66348 7.21390 26 ft 0 kts 81°
2026-05-01 08:56 43.66348 7.21393 26 ft 2 kts 81°
2026-05-01 08:56 43.66358 7.21452 22 ft 8 kts 67°
2026-05-01 08:56 43.66372 7.21532 22 ft 10 kts 114°
2026-05-01 08:56 43.66320 7.21604 22 ft 11 kts 152°
2026-05-01 08:57 43.66254 7.21560 22 ft 11 kts 224°
2026-05-01 08:57 43.66196 7.21480 22 ft 12 kts 225°
2026-05-01 08:57 43.66126 7.21384 22 ft 17 kts 225°
2026-05-01 08:57 43.66044 7.21271 22 ft 16 kts 225°
2026-05-01 08:58 43.65970 7.21170 22 ft 14 kts 225°
2026-05-01 08:58 43.65898 7.21071 22 ft 15 kts 225°
2026-05-01 08:58 43.65826 7.20971 22 ft 14 kts 225°
2026-05-01 08:58 43.65762 7.20883 22 ft 12 kts 225°
2026-05-01 08:59 43.65704 7.20805 22 ft 11 kts 225°
2026-05-01 08:59 43.65654 7.20735 22 ft 10 kts 225°
2026-05-01 08:59 43.65604 7.20682 23 ft 9 kts 198°
2026-05-01 08:59 43.65551 7.20690 22 ft 7 kts 169°
2026-05-01 09:00 43.65479 7.20706 24 ft 12 kts 171°
2026-05-01 09:00 43.65432 7.20748 22 ft 8 kts 87°
2026-05-01 09:00 43.65472 7.20805 22 ft 9 kts 46°
2026-05-01 09:00 43.65570 7.20941 23 ft 49 kts 45°
2026-05-01 09:01 43.65981 7.21504 21 ft 114 kts 45°
2026-05-01 09:01 43.66661 7.22450 97 ft 157 kts 46°
2026-05-01 09:01 43.67392 7.23523 774 ft 151 kts 68°
2026-05-01 09:01 43.67510 7.24908 1464 ft 148 kts 104°
2026-05-01 09:02 43.66973 7.26132 2024 ft 159 kts 136°
2026-05-01 09:02 43.66065 7.27177 2325 ft 181 kts 139°
2026-05-01 09:02 43.65026 7.28348 2627 ft 205 kts 140°
2026-05-01 09:02 43.63903 7.29616 3341 ft 210 kts 139°
2026-05-01 09:03 43.62776 7.30894 4082 ft 214 kts 138°
2026-05-01 09:03 43.61618 7.32214 4829 ft 218 kts 137°
2026-05-01 09:03 43.60394 7.33482 5541 ft 224 kts 151°
2026-05-01 09:03 43.58871 7.34034 6240 ft 234 kts 177°
2026-05-01 09:04 43.57217 7.33817 6921 ft 241 kts 185°
2026-05-01 09:04 43.55543 7.33534 7629 ft 244 kts 184°
2026-05-01 09:04 43.53841 7.33249 8318 ft 249 kts 184°
2026-05-01 09:04 43.52114 7.32965 9082 ft 251 kts 186°
2026-05-01 09:05 43.50355 7.32679 9638 ft 264 kts 185°
2026-05-01 09:05 43.48451 7.32375 9953 ft 287 kts 186°
2026-05-01 09:05 43.46442 7.32056 10477 ft 300 kts 186°
2026-05-01 09:05 43.44306 7.31716 10803 ft 321 kts 186°
2026-05-01 09:06 43.42007 7.31352 11012 ft 344 kts 186°
2026-05-01 09:06 43.39546 7.30962 11186 ft 367 kts 185°
2026-05-01 09:06 43.36951 7.30545 11553 ft 380 kts 186°
2026-05-01 09:06 43.34306 7.30224 12186 ft 384 kts 179°
2026-05-01 09:07 43.31649 7.30550 12893 ft 384 kts 167°
2026-05-01 09:07 43.29082 7.31546 13242 ft 383 kts 157°
2026-05-01 09:07 43.26719 7.33145 13320 ft 392 kts 146°
2026-05-01 09:07 43.24523 7.35478 13326 ft 405 kts 134°
2026-05-01 09:08 43.22672 7.38396 13321 ft 406 kts 126°
2026-05-01 09:08 43.20907 7.41435 13323 ft 407 kts 126°
2026-05-01 09:08 43.19135 7.44460 13322 ft 407 kts 127°
2026-05-01 09:08 43.17360 7.47474 13317 ft 407 kts 126°
2026-05-01 09:09 43.15580 7.50485 13319 ft 406 kts 127°
2026-05-01 09:09 43.13796 7.53493 13317 ft 407 kts 127°
2026-05-01 09:09 43.12107 7.56538 13320 ft 405 kts 121°
2026-05-01 09:09 43.10794 7.59946 13322 ft 405 kts 110°
2026-05-01 09:10 43.09947 7.63591 13314 ft 401 kts 99°
2026-05-01 09:10 43.09479 7.67337 13320 ft 399 kts 97°
2026-05-01 09:10 43.09028 7.71085 13319 ft 400 kts 98°
2026-05-01 09:10 43.08564 7.74845 13312 ft 401 kts 97°
2026-05-01 09:11 43.08097 7.78600 13320 ft 400 kts 98°
2026-05-01 09:11 43.07637 7.82360 13317 ft 401 kts 97°
2026-05-01 09:11 43.07199 7.86115 13319 ft 401 kts 97°
2026-05-01 09:11 43.06780 7.89837 13333 ft 401 kts 97°
2026-05-01 09:12 43.06362 7.93600 13330 ft 401 kts 97°
2026-05-01 09:12 43.05942 7.97375 13331 ft 401 kts 97°
2026-05-01 09:12 43.05516 8.01148 13328 ft 402 kts 95°
2026-05-01 09:12 43.05083 8.04921 13330 ft 402 kts 95°
2026-05-01 09:13 43.04644 8.08704 13320 ft 403 kts 96°
2026-05-01 09:13 43.04203 8.12482 13328 ft 403 kts 96°
2026-05-01 09:13 43.03760 8.16265 13325 ft 403 kts 97°
2026-05-01 09:13 43.03316 8.20049 13323 ft 404 kts 95°
2026-05-01 09:14 43.02873 8.23839 13326 ft 403 kts 95°
2026-05-01 09:14 43.02437 8.27576 13329 ft 403 kts 95°
2026-05-01 09:14 43.01994 8.31356 13325 ft 404 kts 95°
2026-05-01 09:14 43.01548 8.35148 13335 ft 404 kts 97°
2026-05-01 09:15 43.01093 8.38935 13337 ft 404 kts 97°
2026-05-01 09:15 43.00592 8.42720 13328 ft 405 kts 98°
2026-05-01 09:15 43.00054 8.46489 13333 ft 405 kts 97°
2026-05-01 09:15 42.99498 8.50266 13334 ft 405 kts 98°
2026-05-01 09:16 42.98939 8.54041 13324 ft 405 kts 99°
2026-05-01 09:16 42.98383 8.57812 13328 ft 405 kts 97°
2026-05-01 09:16 42.97837 8.61536 13330 ft 405 kts 98°
2026-05-01 09:17 42.96754 8.69082 13327 ft 405 kts 98°
2026-05-01 09:17 42.96211 8.72858 13333 ft 405 kts 98°
2026-05-01 09:17 42.94478 8.80190 13335 ft 411 kts 114°
2026-05-01 09:18 42.92925 8.83488 13344 ft 415 kts 123°
2026-05-01 09:18 42.89471 8.89734 13329 ft 415 kts 124°
2026-05-01 09:19 42.86000 8.96029 13336 ft 415 kts 124°
2026-05-01 09:19 42.84265 8.99174 13333 ft 415 kts 123°
2026-05-01 09:19 42.82530 9.02315 13324 ft 415 kts 124°
2026-05-01 09:20 42.79098 9.08514 13292 ft 394 kts 124°
2026-05-01 09:20 42.75867 9.14332 13075 ft 378 kts 123°
2026-05-01 09:21 42.72851 9.19730 12800 ft 338 kts 123°
2026-05-01 09:21 42.71471 9.22186 12586 ft 318 kts 122°
2026-05-01 09:21 42.68861 9.26872 11506 ft 306 kts 123°
2026-05-01 09:22 42.66320 9.31448 10506 ft 301 kts 123°
2026-05-01 09:22 42.63824 9.35928 10134 ft 295 kts 123°
2026-05-01 09:23 42.62586 9.38143 9988 ft 294 kts 124°
2026-05-01 09:23 42.60125 9.42528 9244 ft 291 kts 124°
2026-05-01 09:24 42.57650 9.46795 8215 ft 286 kts 131°
2026-05-01 09:24 42.56084 9.48474 7587 ft 289 kts 146°
2026-05-01 09:24 42.52647 9.51132 6575 ft 280 kts 146°
2026-05-01 09:25 42.49302 9.53745 5618 ft 274 kts 146°
2026-05-01 09:25 42.46066 9.56275 4836 ft 259 kts 146°
2026-05-01 09:26 42.44554 9.57446 4639 ft 247 kts 146°
2026-05-01 09:26 42.41680 9.59643 4298 ft 227 kts 146°
2026-05-01 09:26 42.40348 9.60650 4198 ft 211 kts 145°
2026-05-01 09:27 42.37811 9.62383 4010 ft 209 kts 164°
2026-05-01 09:27 42.36358 9.62175 3862 ft 217 kts 202°
2026-05-01 09:27 42.35266 9.60820 3734 ft 219 kts 242°
2026-05-01 09:28 42.34974 9.58896 3589 ft 205 kts 281°
2026-05-01 09:28 42.35486 9.57224 3450 ft 185 kts 317°
2026-05-01 09:28 42.36451 9.56249 3333 ft 166 kts 346°
2026-05-01 09:28 42.37538 9.55782 3238 ft 163 kts 349°
2026-05-01 09:29 42.39706 9.54881 2999 ft 163 kts 348°
2026-05-01 09:29 42.40780 9.54433 2801 ft 161 kts 348°
2026-05-01 09:30 42.42896 9.53550 2407 ft 160 kts 347°
2026-05-01 09:30 42.43937 9.53115 2168 ft 153 kts 346°
2026-05-01 09:30 42.45898 9.52295 1746 ft 144 kts 345°
2026-05-01 09:31 42.46854 9.51896 1567 ft 143 kts 344°
2026-05-01 09:31 42.47773 9.51512 1392 ft 136 kts 344°
2026-05-01 09:31 42.49563 9.50763 1013 ft 135 kts 345°
2026-05-01 09:32 42.50446 9.50393 833 ft 133 kts 345°
2026-05-01 09:32 42.52229 9.49647 485 ft 133 kts 346°
2026-05-01 09:32 42.53118 9.49274 307 ft 133 kts 345°
2026-05-01 09:33 42.54010 9.48901 117 ft 135 kts 346°
2026-05-01 09:33 42.54871 9.48537 39 ft 109 kts 342°
2026-05-01 09:33 42.55499 9.48277 36 ft 31 kts 343°
2026-05-01 09:34 42.55704 9.48193 32 ft 31 kts 343°
2026-05-01 09:34 42.55905 9.48106 32 ft 30 kts 342°
2026-05-01 09:34 42.55944 9.47913 31 ft 8 kts 246°
2026-05-01 09:35 42.55905 9.47864 33 ft 7 kts 197°
2026-05-01 09:35 42.55821 9.47886 33 ft 8 kts 163°
2026-05-01 09:35 42.55758 9.47912 33 ft 10 kts 163°
2026-05-01 09:36 42.55669 9.47948 34 ft 15 kts 162°
2026-05-01 09:36 42.55557 9.47997 35 ft 19 kts 162°
2026-05-01 09:36 42.55424 9.48052 34 ft 21 kts 162°
2026-05-01 09:36 42.55284 9.48111 36 ft 22 kts 162°
2026-05-01 09:37 42.55159 9.48164 36 ft 19 kts 162°
2026-05-01 09:37 42.54942 9.48236 38 ft 12 kts 176°
2026-05-01 09:37 42.54865 9.48264 39 ft 11 kts 163°
2026-05-01 09:38 42.54751 9.48311 40 ft 8 kts 163°
2026-05-01 09:38 42.54726 9.48284 40 ft 5 kts 260°
2026-05-01 09:38 42.54732 9.48234 40 ft 6 kts 282°
2026-05-01 09:39 42.54736 9.48205 37 ft 0 kts 282°